This demonstration page uses our WeatherBlox Daily Observations layout. Learn more.

Left ArrowRight Arrow

Hourly Observations for July 15, 2015

Temp ( °F °C ) Dew Point ( °F °C ) Humidity (%) Winds ( mph kmh ) Pressure ( in mb ) Visibility ( mi km ) Precip ( " mm )
12:15 am 00:15 Cloudy 73 23 70 21 89 89 NW 15 24 29.59 1002 10 16 N/A
12:35 am 00:35 Cloudy with Rain 73 23 70 21 89 89 NNW 13 20 29.59 1002 10 16 N/A
12:55 am 00:55 Cloudy with Light Rain 72 22 72 22 100 100 NNE 7 11 29.62 1003 10 16 N/A
1:15 am 01:15 Cloudy with Light Rain 72 22 70 21 94 94 N N/A 29.62 1003 10 16 N/A
1:35 am 01:35 Cloudy with Rain 70 21 70 21 100 100 N 7 11 29.59 1002 10 16 N/A
1:55 am 01:55 Mostly Cloudy 70 21 70 21 100 100 WNW 3 6 29.59 1002 10 16 N/A
2:15 am 02:15 Partly Cloudy 70 21 70 21 100 100 N N/A 29.59 1002 10 16 N/A
2:35 am 02:35 Mostly Cloudy 70 21 70 21 100 100 W 5 7 29.59 1002 10 16 N/A
2:55 am 02:55 Partly Cloudy 70 21 70 21 100 100 N N/A 29.59 1002 10 16 N/A
3:15 am 03:15 Clear 70 21 70 21 100 100 N N/A 29.59 1002 10 16 N/A
3:35 am 03:35 Clear 68 20 68 20 100 100 N N/A 29.59 1002 10 16 N/A
3:55 am 03:55 Clear 70 21 70 21 100 100 W 5 7 29.59 1002 10 16 N/A
4:15 am 04:15 Clear 70 21 68 20 94 94 W 3 6 29.59 1002 10 16 N/A
4:35 am 04:35 Clear 70 21 68 20 94 94 W 7 11 29.59 1002 10 16 N/A
4:55 am 04:55 Clear 70 21 68 20 94 94 N N/A 29.59 1002 10 16 N/A
5:15 am 05:15 Clear 70 21 68 20 94 94 WNW 3 6 29.59 1002 10 16 N/A
5:35 am 05:35 Clear 70 21 68 20 94 94 WNW 3 6 29.62 1003 10 16 N/A
5:55 am 05:55 Clear 70 21 68 20 94 94 N N/A 29.62 1003 10 16 N/A
6:15 am 06:15 Sunny 70 21 68 20 94 94 WNW 3 6 29.62 1003 10 16 N/A
6:35 am 06:35 Mostly Cloudy 70 21 70 21 100 100 WNW 3 6 29.62 1003 10 16 N/A
6:55 am 06:55 Mostly Cloudy 72 22 70 21 94 94 NW 9 15 29.65 1004 10 16 N/A
7:15 am 07:15 Partly Cloudy 72 22 70 21 94 94 NW 8 13 29.65 1004 10 16 N/A
7:35 am 07:35 Mostly Cloudy 73 23 70 21 89 89 NW 13 20 29.65 1004 10 16 N/A
7:55 am 07:55 Cloudy 73 23 70 21 89 89 NW 12 19 29.65 1004 10 16 N/A
8:15 am 08:15 Cloudy 73 23 70 21 89 89 NW 14 22 29.68 1005 10 16 N/A
8:35 am 08:35 Mostly Cloudy 75 24 70 21 83 83 NW 14 22 29.68 1005 10 16 N/A
8:55 am 08:55 Partly Cloudy 77 25 70 21 79 79 NW 15 24 29.68 1005 10 16 N/A
9:15 am 09:15 Partly Cloudy 77 25 70 21 79 79 NNW 17 28 29.68 1005 10 16 N/A
9:35 am 09:35 Mostly Cloudy 79 26 70 21 74 74 NNW 17 28 29.71 1006 10 16 N/A
9:55 am 09:55 Mostly Cloudy 79 26 70 21 74 74 NNW 16 26 29.71 1006 10 16 N/A
10:15 am 10:15 Cloudy 79 26 70 21 74 74 NNW 21 33 29.71 1006 10 16 N/A
10:35 am 10:35 Cloudy 77 25 72 22 83 83 NW 13 20 29.71 1006 10 16 N/A
10:55 am 10:55 Cloudy 75 24 70 21 83 83 NW 13 20 29.74 1007 10 16 N/A
11:15 am 11:15 Partly Cloudy 77 25 70 21 79 79 NW 13 20 29.74 1007 10 16 N/A
11:35 am 11:35 Partly Cloudy 77 25 70 21 79 79 NNW 13 20 29.74 1007 10 16 N/A
11:55 am 11:55 Mostly Cloudy 81 27 72 22 74 74 N 14 22 29.74 1007 10 16 N/A
12:15 pm 12:15 Mostly Cloudy 81 27 72 22 74 74 N 12 19 29.74 1007 10 16 N/A
12:35 pm 12:35 Partly Cloudy 82 28 72 22 70 70 N 8 13 29.71 1006 10 16 N/A
12:55 pm 12:55 Partly Cloudy 82 28 70 21 66 66 NNE 7 11 29.71 1006 10 16 N/A
1:15 pm 13:15 Partly Cloudy 81 27 70 21 70 70 N 12 19 29.74 1007 10 16 N/A
1:35 pm 13:35 Mostly Cloudy 81 27 72 22 74 74 NW 13 20 29.74 1007 10 16 N/A
1:55 pm 13:55 Cloudy 82 28 72 22 70 70 N 9 15 29.71 1006 10 16 N/A
2:15 pm 14:15 Cloudy 82 28 70 21 66 66 N 9 15 29.74 1007 10 16 N/A
2:35 pm 14:35 Mostly Cloudy 82 28 72 22 70 70 NNW 16 26 29.71 1006 10 16 N/A
2:55 pm 14:55 Mostly Cloudy 82 28 72 22 70 70 N 10 17 29.74 1007 10 16 N/A
3:15 pm 15:15 Mostly Cloudy 82 28 72 22 70 70 N 10 17 29.74 1007 10 16 N/A
3:35 pm 15:35 Mostly Cloudy 82 28 72 22 70 70 N 9 15 29.74 1007 10 16 N/A
3:55 pm 15:55 Mostly Cloudy 82 28 70 21 66 66 N 9 15 29.74 1007 10 16 N/A
4:15 pm 16:15 Mostly Cloudy 82 28 70 21 66 66 N 8 13 29.74 1007 10 16 N/A
4:35 pm 16:35 Mostly Cloudy 84 29 72 22 66 66 NW 14 22 29.74 1007 10 16 N/A
4:55 pm 16:55 Partly Cloudy 84 29 72 22 66 66 NW 17 28 29.77 1008 10 16 N/A
5:15 pm 17:15 Partly Cloudy 82 28 70 21 66 66 N 13 20 29.80 1009 10 16 N/A
5:35 pm 17:35 Partly Cloudy 81 27 72 22 74 74 NW 15 24 29.80 1009 10 16 N/A
5:55 pm 17:55 Sunny 82 28 70 21 66 66 NNW 9 15 29.80 1009 10 16 N/A
6:15 pm 18:15 Sunny 82 28 72 22 70 70 N 12 19 29.80 1009 10 16 N/A
6:35 pm 18:35 Sunny 82 28 70 21 66 66 N 9 15 29.80 1009 10 16 N/A
6:55 pm 18:55 Sunny 82 28 70 21 66 66 N 9 15 29.80 1009 10 16 N/A
7:15 pm 19:15 Sunny 82 28 70 21 66 66 N 7 11 29.80 1009 10 16 N/A
7:35 pm 19:35 Sunny 81 27 70 21 70 70 N 9 15 29.83 1010 10 16 N/A
7:55 pm 19:55 Sunny 81 27 68 20 66 66 N 9 15 29.83 1010 10 16 N/A
8:15 pm 20:15 Sunny 79 26 70 21 74 74 N 7 11 29.83 1010 10 16 N/A
8:35 pm 20:35 Sunny 79 26 68 20 70 70 N 9 15 29.85 1011 10 16 N/A
8:55 pm 20:55 Clear 79 26 68 20 70 70 NNE 9 15 29.85 1011 10 16 N/A
9:15 pm 21:15 Clear 77 25 70 21 79 79 NNE 8 13 29.85 1011 10 16 N/A
9:35 pm 21:35 Clear 77 25 70 21 79 79 NNE 8 13 29.88 1012 10 16 N/A
9:55 pm 21:55 Clear 75 24 68 20 78 78 NNE 8 13 29.91 1013 10 16 N/A
10:15 pm 22:15 Clear 73 23 68 20 83 83 N 9 15 29.91 1013 10 16 N/A
10:35 pm 22:35 Clear 73 23 68 20 83 83 NNE 10 17 29.91 1013 10 16 N/A
10:55 pm 22:55 Clear 72 22 66 19 83 83 NNE 8 13 29.91 1013 10 16 N/A
11:15 pm 23:15 Clear 72 22 66 19 83 83 NNE 10 17 29.94 1014 10 16 N/A
11:35 pm 23:35 Clear 70 21 64 18 83 83 NNE 7 11 29.94 1014 10 16 N/A
11:55 pm 23:55 Clear 70 21 63 17 78 78 N 5 7 29.94 1014 10 16 N/A

Powered by AerisWeather